SL-12 R/B(2), 29673

Orbit data source: Space-Track

SL-12 R/B(2), 29673 is space debris in MEO originally from a launch on Mon, 25 Dec 2006 UTC launched from the Tyuratam Missile And Space Complex (TTMTR). Debris objects in space refer to the collection of defunct objects orbiting the Earth. Examples of debris include non-operational satellites, rocket bodies, and fragments generated from explosions, collisions, or faulty payload assembly.

Loading next visibility...
Identifier
29673, 2006-062D
Orbit
MEO
Country
Flag of CISCIS
Related business
Manufacturer
RKKE
Mission
Spacecraft
Bus & Motor
BLOK DM2, 11D58M
Mass
2,440 kg wet, 2,440 kg dry
Launch date (UTC)
2006-12-25 (19 years ago)
Launch vehicle
Unknown
Launch site
Tyuratam Missile And Space Complex (TTMTR)
Object type
Payload
Rocket body
Debris
Shape & HBR
Cyl, 3.1 m
Radar Cross Section
23.684 m², Large (>1 m²)

Expand to show TLE details & history
Last TLE update: 1 day ago

TLE from 1 day ago
0 SL-12 R/B(2)
1 29673U 06062D   26124.23032330  .00000038  00000-0  00000-0 0  9993
2 29673  64.7021 195.0859 0028238 193.8350 174.6094  2.13404221151050
Epoch: 2026-05-04T05:31Z
TLE epoch observation values (Epoch: 2026-05-04T05:31:39.933Z)
Latitude
7.60159°
Longitude
-106.3449°
Altitude
19,177.412 km
Speed
3.944 km/s
True Right ascension
13h 14m 46s
True Declination
7° 35' 21"
Sunlit
Object was in daylight at epoch
Visualization orbit readout
Latitude
Unknown
Longitude
Unknown
Altitude
Unknown
Speed
Unknown
Apparent Right ascension
Unknown
Apparent Declination
Unknown
Sunlit
N/A
Visualization observer readout
Local Sidereal Time
18:10:34
Azimuth
Unknown
Elevation
Unknown
Doppler factor
Unknown
Orbital elements
Apogee altitude
19,177.384 km
Perigee altitude
19,033.463 km
Semi-major axis
25,483.561 km
Eccentricity
0.00282
Inclination
64.7021°
RAAN
195.0859°
Arg. of periapsis
193.835°
True anomaly
174.63969°
Mean anomaly
174.6094°
Eccentric anomaly
174.62456°
Mean motion
0.53352 °/min
Orbital period
674.76 mins
BSTAR
0
Loading maneuver chart data...
Computing Atmospheric mass density...
Loading historical data...
Loading historical data...
Loading historical data...
Loading historical data...
Loading historical data...
Loading historical data...
Loading historical data...

Documentation

Showing up to 5 results
|